カタログに戻る

STARLINK-31717

運用中通信VLEO
NORAD 59385·PAYLOAD·🇺🇸 United States

打ち上げ Apr 2, 2024 から Vandenberg Space Force Base

Loading…

次のパス (今後24時間)

TLE

最新Source: CelesTrak SupGP

元期: Sep 15, 2026, 02:12 UTC

1 59385C 24062M   26258.09215278  .00011907  00000+0  35178-3 0  2583
2 59385  53.1575  92.7313 0001098  80.6552 312.6587 15.34386317    11

AllMySatでSTARLINK-31717をリアルタイム追跡

Download on the App Store